Home   Weather   Changchun   Past weeks

Flag for China Past Weather in Changchun, Jilin, China — Yesterday and Last 2 Weeks

36 °F

Passing clouds.

Feels Like: 29 °F
Forecast: 22 / 46 °F
Wind: 8 mph from Northeast

Location: Changchun Airport

Current Time: Oct 22, 2016 at 11:43:49 AM

Latest Report: Oct 22, 2016 at 11:00 AM

Visibility: N/A

Pressure: 30.36 "Hg

Humidity: 60%

Dew Point: 23 °F

Location of ChangchunLocation

Past Weather in Changchun — Graph


Changchun Temperature Yesterday

Maximum temperature yesterday: 46 °F (at 2:00 PM)
Minimum temperature yesterday: 28 °F (at 12:00 AM)
Average temperature yesterday: 36 °F

High & Low Weather Summary for the Past Weeks

High73 °F (Oct 15, 2:00 PM)94% (Oct 8, 1:00 AM)30.48 "Hg (Oct 8, 1:00 AM)
Low27 °F (Oct 20, 11:00 PM)24% (Oct 20, 2:00 PM)29.74 "Hg (Oct 8, 7:00 AM)
Average45 °F66%30.12 "Hg
* Reported Oct 7 10:00 AM — Oct 22 10:00 AM, Changchun, Weather by CustomWeather, © 2016

Note: Actual official high and low records may vary slightly from our data, if they occured in-between our weather recording intervals... More about our weather records


Changchun Weather History for the Previous 24 Hours

Scroll right to see more
Time TempWeatherWind HumidityBarometerVisibility
10:00 AM
Sat, Oct 22
32 °FPassing clouds.8 mph69%30.36 "HgN/A
9:00 AM30 °FPassing clouds.8 mph75%30.36 "HgN/A
8:00 AM28 °FPassing clouds.6 mph80%30.36 "HgN/A
7:00 AM28 °FPassing clouds.6 mph80%30.33 "HgN/A
6:00 AM28 °FLight snow. Passing clouds.6 mph86%30.30 "Hg4 mi
5:00 AM30 °FIcy mix. Passing clouds.6 mph86%30.30 "Hg4 mi
4:00 AM30 °FIcy mix. Passing clouds.10 mph86%30.27 "Hg4 mi
3:00 AM30 °FIcy mix. Ice fog.8 mph86%30.27 "Hg3 mi
2:00 AM30 °FIcy mix. Ice fog.8 mph86%30.24 "Hg2 mi
1:00 AM30 °FIcy mix. Ice fog.8 mph86%30.24 "Hg2 mi
12:00 AM30 °FIcy mix. Ice fog.6 mph86%30.21 "Hg2 mi
11:00 PM
Fri, Oct 21
30 °FIcy mix. Ice fog.8 mph86%30.18 "Hg3 mi
10:00 PM32 °FLight rain. Ice fog.10 mph80%30.18 "Hg3 mi
9:00 PM34 °FLight rain. Passing clouds.8 mph81%30.18 "Hg4 mi
8:00 PM36 °FLight rain. Passing clouds.3 mph81%30.18 "Hg4 mi
7:00 PM37 °FLight rain. Passing clouds.6 mph70%30.15 "Hg4 mi
6:00 PM39 °FPassing clouds.8 mph61%30.12 "Hg4 mi
5:00 PM41 °FPassing clouds.3 mph53%30.12 "Hg4 mi
4:00 PM43 °FSprinkles. Partly sunny.3 mph49%30.12 "Hg4 mi
3:00 PM45 °FSprinkles. Partly sunny.3 mph39%30.09 "Hg6 mi
2:00 PM46 °FPartly sunny.3 mph34%30.09 "HgN/A
1:00 PM45 °FPartly sunny.1 mph37%30.09 "HgN/A
12:00 PM45 °FPartly sunny.6 mph37%30.12 "HgN/A
11:00 AM43 °FPassing clouds.6 mph34%30.12 "HgN/A
Weather by CustomWeather, © 2016

See weather overviewHow to use our weather pages